Wind_Speed
9 10 11 12 13 13 13 13 13 14 16 17 18 19 18 19 20 19 19 19 19 19 17 16 16 17 16 16 16 16 17 17 18 19 19 18 18 19 20 20 19 19 19 19
9 10 12 13 13 13 13 13 13 14 16 17 18 18 18 18 19 19 19 19 19 19 19 17 18 17 17 16 16 16 16 16 18 19 19 18 19 19 20 21 19 19 19 19
9 11 12 13 14 15 15 16 15 15 17 17 19 18 17 17 17 18 19 19 18 19 19 18 17 16 17 17 16 17 18 18 18 19 18 19 20 20 20 20 20 20 19 19
9 11 13 13 14 15 16 16 17 17 18 17 18 18 16 17 17 17 18 18 18 18 18 18 17 17 17 17 17 18 18 18 19 19 19 20 20 19 19 20 20 19 19 20
10 12 13 13 14 15 15 15 16 17 17 17 17 19 17 17 17 17 18 19 19 18 18 18 17 17 17 18 18 18 18 18 19 19 18 19 19 19 19 19 19 19 19 19
12 13 14 14 14 14 14 16 16 16 17 17 17 19 18 17 16 17 18 18 18 17 18 18 18 17 18 18 18 18 18 18 18 18 18 19 18 18 18 18 19 19 19 19
12 13 14 14 14 14 14 16 17 17 18 17 17 18 17 16 16 17 17 17 17 18 17 17 17 17 17 18 18 18 18 18 17 17 18 18 19 19 17 18 19 18 18 18
12 12 13 14 14 15 15 16 18 20 20 19 17 17 17 16 15 15 16 17 17 17 17 18 18 18 18 18 18 18 17 17 18 18 19 19 19 20 19 19 18 17 17 17
14 13 13 14 14 15 16 16 17 20 20 20 19 19 17 16 16 16 16 16 17 17 17 18 18 18 18 18 17 17 17 17 19 19 19 18 18 18 19 19 18 18 17 17
14 15 14 14 15 16 17 18 18 19 21 21 20 18 18 17 17 17 17 18 18 18 18 17 17 17 16 16 16 16 17 18 18 19 19 18 18 18 18 17 17 17 18 18
15 16 15 16 17 17 17 18 19 19 19 21 21 18 17 18 17 17 17 17 17 17 17 17 16 16 16 17 17 17 17 17 17 17 17 18 18 18 17 17 16 17 17 17
16 17 17 17 18 18 18 18 18 18 19 20 21 19 18 17 17 17 17 16 17 17 17 17 17 16 16 16 16 16 16 16 17 16 16 16 16 16 16 16 16 17 17 17
17 17 18 17 17 18 18 16 16 17 18 20 20 18 17 16 16 17 17 18 18 18 17 17 17 16 16 15 15 15 15 15 15 15 14 14 14 15 16 15 16 17 17 18
19 18 17 17 16 16 16 14 15 15 16 17 17 16 15 16 17 17 17 18 18 17 16 16 16 16 15 15 15 15 14 14 14 13 13 14 14 14 14 14 15 16 17 17
18 17 16 16 15 15 14 13 13 14 14 15 14 15 15 16 16 16 16 17 16 15 14 14 14 15 15 14 14 14 14 14 13 12 13 13 13 12 13 14 14 15 15 15
17 16 14 13 13 13 12 12 13 13 13 13 14 14 14 15 15 15 16 16 15 15 15 15 15 14 13 12 12 12 13 13 11 12 12 12 11 11 12 12 13 13 14 14
16 16 15 13 12 12 12 11 12 12 12 13 14 13 13 13 14 15 15 15 14 14 14 14 13 13 12 11 11 11 11 11 11 10 10 10 10 10 11 11 12 13 14 14
14 14 14 13 12 12 11 11 11 11 11 12 12 12 12 13 13 13 12 11 11 11 12 11 11 11 10 10 10 10 11 10 10 10 10 10 10 11 11 11 12 13 13 13
13 13 13 12 11 11 10 10 10 10 10 11 10 11 12 13 12 10 10 10 9 9 9 8 8 9 9 10 9 9 10 10 10 10 10 10 10 9 10 11 12 12 12 13
12 12 13 12 11 11 10 10 10 10 9 10 9 10 11 11 10 8 8 8 7 7 7 6 7 8 8 8 8 8 9 9 9 10 9 9 9 9 10 10 11 11 12 12
11 11 11 11 10 10 10 10 9 9 8 9 9 10 10 10 9 7 8 7 6 6 6 6 6 7 7 7 7 8 8 8 9 9 9 9 8 8 9 10 10 11 11 12
11 11 12 12 10 9 10 10 9 9 9 9 8 8 8 8 7 7 7 6 5 5 5 5 5 6 6 6 7 7 8 8 8 8 8 7 7 8 9 9 10 10 11 11
12 12 12 11 10 10 10 10 10 9 9 8 8 8 7 7 6 6 6 5 5 4 4 5 4 4 5 5 6 6 7 7 7 7 6 6 7 8 9 9 9 10 11 11
12 12 11 11 10 11 10 10 10 9 9 9 8 7 7 7 6 5 5 4 4 4 4 4 4 4 4 4 4 4 5 5 5 5 5 5 6 7 8 8 9 10 10 11
11 12 12 11 11 11 11 11 9 9 9 8 7 7 6 6 5 4 3 3 3 3 3 3 3 3 3 3 4 4 5 5 4 4 5 5 5 7 8 8 9 10 11 12
10 11 11 11 11 12 11 11 9 8 8 7 7 6 6 6 6 4 3 2 2 2 2 3 3 2 2 3 4 4 4 4 4 4 5 5 6 7 8 9 10 11 12 13
Wind_Direction
253 253 250 248 248 248 249 250 251 253 258 262 265 265 265 265 267 271 272 272 272 270 268 269 273 276 277 277 281 279 278 280 284 287 289 287 287 288 286 288 290 291 294 296
255 254 255 254 253 251 250 251 250 250 257 265 268 267 266 268 269 271 274 276 274 269 268 270 273 274 274 274 276 277 277 281 286 290 290 290 290 290 289 289 290 292 294 295
261 256 255 255 255 255 254 254 253 256 260 266 270 268 266 267 270 273 275 275 275 273 269 270 272 274 274 274 275 275 279 285 288 287 286 288 289 293 294 294 294 294 295 296
262 257 257 257 257 259 257 256 256 260 264 264 269 270 267 271 272 274 276 276 276 273 271 273 275 276 276 276 275 276 278 280 283 284 285 289 290 291 292 294 295 296 296 297
269 260 260 261 262 263 264 261 260 263 267 269 271 273 271 273 273 274 276 274 275 274 273 273 276 275 274 275 275 276 275 278 280 283 286 286 287 287 289 291 293 295 297 297
276 264 262 264 266 266 265 264 264 265 270 273 276 275 275 277 276 274 275 274 272 273 274 274 273 273 273 274 275 276 274 273 277 281 286 287 286 288 288 289 291 293 293 293
278 269 266 267 265 267 267 266 269 272 274 278 280 279 280 280 275 274 275 275 273 273 272 272 273 272 272 275 277 278 273 272 274 278 284 288 286 286 288 288 290 291 290 290
281 275 269 269 270 270 269 270 274 278 280 280 279 279 282 282 279 276 275 275 273 272 272 272 272 272 272 273 276 278 275 275 278 278 282 285 286 285 285 291 293 293 291 290
284 279 272 264 267 271 272 274 276 278 280 280 282 282 281 282 283 279 275 273 270 270 273 273 274 273 272 272 275 279 279 281 282 285 284 286 289 292 291 290 290 293 293 291
285 279 274 269 267 269 271 273 277 279 283 283 283 284 282 283 285 280 278 274 272 271 271 272 275 274 274 276 276 278 279 281 283 288 289 290 291 293 292 292 293 291 292 292
285 280 276 272 269 273 273 274 276 278 283 285 286 288 286 286 286 284 283 280 274 272 272 272 274 272 274 275 278 279 282 282 283 288 289 287 289 290 292 290 293 293 295 295
283 280 277 274 273 273 276 278 278 279 282 284 287 290 286 285 287 285 284 282 279 276 273 269 271 272 276 277 278 278 282 285 284 285 286 286 289 291 294 293 292 290 296 301
283 279 278 277 276 272 272 274 279 280 282 284 284 287 282 282 285 286 286 284 281 277 274 273 272 273 275 278 276 278 281 286 285 282 283 284 287 293 297 295 296 298 302 306
287 280 281 283 280 273 272 274 278 283 283 285 282 282 281 284 287 289 287 283 280 275 272 272 272 272 275 276 277 277 281 283 281 282 283 286 289 294 297 298 300 303 305 308
288 284 282 282 279 275 274 273 276 279 282 285 283 284 288 288 289 289 289 286 281 276 270 270 273 277 275 277 278 279 281 280 279 282 284 287 291 294 297 301 304 307 310 312
294 290 287 282 279 277 280 278 279 279 283 286 286 287 291 292 290 288 289 288 283 280 275 273 276 278 277 278 281 282 283 281 279 282 283 288 291 293 298 304 307 310 312 314
296 292 286 281 277 275 280 280 280 279 280 286 287 288 289 293 294 293 293 292 289 283 279 276 274 276 279 281 284 282 285 284 287 286 287 287 289 296 305 307 310 311 313 315
299 292 284 278 274 273 279 280 281 282 284 287 286 287 292 297 298 295 296 295 289 282 277 272 268 271 277 283 283 281 284 286 287 289 288 284 291 295 301 306 309 313 316 319
296 293 288 283 278 276 278 279 282 286 287 288 286 286 292 295 294 293 293 297 293 286 282 273 268 272 276 283 286 285 290 292 293 294 298 296 295 299 301 302 307 314 316 319
286 286 284 283 281 281 278 280 287 288 289 288 286 288 292 292 290 287 288 293 295 295 293 280 272 278 282 287 291 291 294 293 296 299 298 301 298 301 306 306 307 312 316 319
282 282 281 281 280 280 279 282 279 281 286 286 282 286 293 290 290 282 279 285 288 295 290 278 274 280 288 291 293 292 295 299 304 308 304 307 306 307 311 312 314 314 316 319
286 282 282 280 278 281 275 276 277 282 287 288 285 286 290 289 281 278 275 279 286 293 290 280 280 285 293 294 296 297 300 305 309 308 310 309 309 312 316 317 319 319 319 320
283 279 277 277 280 280 273 269 272 279 283 280 276 281 279 274 271 277 277 277 283 291 298 294 292 298 301 301 301 299 305 311 314 310 311 309 308 313 320 322 323 323 326 325
284 280 274 271 271 269 270 270 273 273 273 270 272 279 278 273 267 267 278 276 282 290 303 302 291 298 300 301 307 313 318 320 322 319 319 318 319 321 325 327 331 332 332 331
291 283 276 270 265 261 266 270 268 266 269 264 265 269 271 267 264 266 269 270 274 294 301 302 303 307 311 317 326 333 338 339 337 335 333 330 332 336 335 338 340 339 337 336
289 286 279 270 260 258 262 262 256 256 259 261 261 263 264 267 259 253 251 252 273 291 302 307 308 317 329 338 347 350 351 348 344 342 343 346 349 348 344 340 337 336 336 339
Height
5820 5821 5820 5821 5821 5822 5822 5823 5823 5824 5824 5824 5825 5825 5826 5826 5827 5827 5827 5827 5828 5827 5828 5827 5827 5827 5826 5826 5826 5826 5826 5826 5825 5824 5823 5822 5821 5820 5820 5819 5817 5816 5814 5812
5818 5818 5819 5819 5819 5819 5820 5820 5821 5822 5822 5821 5821 5822 5823 5823 5823 5824 5824 5823 5824 5823 5823 5823 5823 5822 5822 5822 5822 5822 5822 5821 5821 5820 5819 5818 5817 5816 5815 5813 5812 5811 5810 5808
5816 5817 5816 5816 5817 5817 5817 5818 5818 5819 5819 5818 5818 5819 5820 5819 5820 5820 5820 5819 5819 5819 5819 5819 5818 5818 5818 5818 5818 5818 5817 5817 5817 5816 5815 5814 5813 5811 5810 5809 5807 5806 5805 5803
5813 5814 5814 5814 5814 5814 5815 5815 5815 5815 5815 5815 5816 5815 5816 5816 5816 5816 5816 5816 5816 5815 5815 5815 5814 5814 5814 5814 5814 5813 5813 5813 5812 5811 5810 5809 5808 5807 5806 5805 5803 5802 5800 5799
5811 5811 5811 5811 5812 5812 5812 5812 5812 5812 5811 5811 5811 5811 5813 5812 5813 5813 5812 5811 5811 5811 5811 5810 5810 5810 5809 5809 5809 5809 5809 5808 5808 5807 5805 5804 5803 5802 5800 5800 5799 5797 5795 5794
5808 5808 5808 5809 5809 5809 5809 5809 5808 5808 5808 5808 5808 5807 5808 5808 5809 5808 5808 5807 5807 5807 5806 5806 5806 5806 5805 5805 5804 5804 5804 5803 5803 5802 5801 5799 5798 5796 5795 5794 5794 5792 5790 5789
5806 5805 5805 5805 5805 5806 5805 5805 5804 5804 5803 5804 5803 5802 5804 5804 5804 5804 5804 5803 5803 5802 5802 5802 5801 5801 5800 5800 5799 5798 5798 5798 5797 5797 5796 5794 5793 5792 5790 5789 5788 5787 5785 5784
5802 5802 5802 5802 5802 5801 5801 5802 5801 5800 5799 5800 5800 5799 5801 5800 5799 5799 5799 5799 5798 5798 5797 5797 5796 5796 5795 5795 5794 5793 5793 5792 5792 5791 5790 5790 5788 5787 5786 5784 5783 5782 5780 5779
5798 5799 5799 5798 5798 5798 5797 5797 5797 5797 5795 5795 5795 5796 5796 5796 5795 5795 5795 5794 5794 5793 5793 5792 5791 5791 5790 5790 5790 5789 5788 5787 5787 5786 5784 5784 5783 5781 5780 5780 5779 5777 5776 5775
5795 5794 5795 5795 5795 5794 5794 5793 5793 5793 5791 5790 5791 5791 5792 5791 5791 5791 5790 5789 5788 5788 5788 5787 5786 5786 5785 5785 5785 5784 5783 5782 5782 5781 5780 5779 5778 5777 5776 5775 5774 5773 5771 5770
5791 5791 5791 5791 5790 5790 5790 5790 5789 5788 5788 5787 5786 5789 5788 5787 5786 5785 5785 5784 5783 5783 5782 5782 5781 5781 5781 5780 5780 5779 5778 5777 5777 5776 5775 5774 5772 5772 5771 5770 5769 5768 5766 5764
5787 5786 5786 5787 5787 5786 5785 5785 5784 5784 5784 5783 5782 5785 5783 5782 5781 5781 5780 5779 5778 5778 5777 5777 5777 5776 5776 5775 5775 5774 5774 5773 5772 5771 5770 5769 5768 5767 5767 5766 5764 5763 5762 5760
5782 5781 5781 5782 5783 5782 5781 5780 5780 5779 5779 5779 5778 5781 5778 5778 5777 5776 5775 5774 5773 5773 5773 5772 5772 5772 5771 5771 5770 5769 5769 5768 5768 5767 5766 5765 5765 5764 5763 5762 5761 5759 5758 5755
5777 5776 5777 5777 5776 5776 5776 5776 5776 5775 5775 5774 5774 5774 5774 5774 5773 5772 5771 5770 5769 5768 5768 5768 5767 5767 5767 5766 5766 5765 5765 5764 5764 5763 5763 5762 5761 5760 5759 5758 5757 5755 5753 5751
5773 5773 5772 5772 5772 5771 5772 5772 5773 5772 5772 5771 5771 5770 5770 5769 5768 5767 5766 5765 5764 5764 5763 5763 5763 5763 5763 5762 5762 5761 5761 5760 5760 5760 5759 5758 5757 5756 5755 5754 5753 5751 5749 5747
5769 5769 5768 5769 5769 5768 5768 5769 5769 5769 5768 5768 5767 5767 5766 5764 5763 5763 5762 5761 5760 5760 5759 5759 5759 5759 5759 5759 5758 5758 5757 5757 5756 5756 5756 5755 5754 5753 5752 5751 5749 5748 5746 5743
5765 5765 5765 5765 5765 5765 5766 5766 5766 5766 5765 5764 5763 5763 5762 5761 5760 5759 5758 5757 5756 5755 5755 5755 5755 5755 5755 5755 5755 5754 5754 5754 5753 5753 5752 5752 5751 5750 5749 5748 5746 5745 5743 5740
5762 5761 5761 5761 5763 5763 5765 5763 5763 5763 5762 5761 5760 5760 5759 5758 5756 5755 5754 5753 5752 5752 5752 5751 5751 5752 5752 5752 5752 5751 5751 5751 5750 5750 5749 5748 5747 5747 5746 5745 5743 5742 5740 5737
5759 5758 5758 5758 5758 5759 5761 5760 5759 5760 5759 5758 5758 5757 5756 5755 5754 5753 5751 5750 5750 5750 5749 5748 5749 5749 5749 5750 5749 5749 5748 5748 5747 5747 5746 5745 5744 5743 5743 5742 5741 5739 5737 5735
5756 5756 5756 5756 5756 5756 5758 5757 5757 5758 5757 5756 5755 5755 5754 5753 5752 5752 5750 5749 5748 5748 5747 5747 5747 5747 5748 5748 5747 5747 5746 5745 5744 5744 5743 5742 5741 5741 5740 5739 5738 5736 5734 5732
5755 5754 5754 5754 5754 5754 5755 5754 5755 5756 5756 5754 5753 5752 5752 5751 5750 5750 5748 5747 5747 5746 5745 5745 5745 5746 5745 5745 5745 5744 5743 5743 5742 5741 5740 5739 5739 5738 5737 5736 5735 5733 5731 5729
5751 5752 5752 5751 5752 5754 5752 5752 5753 5753 5752 5751 5750 5750 5750 5749 5748 5748 5747 5746 5745 5745 5745 5744 5744 5744 5743 5743 5743 5742 5741 5741 5740 5739 5738 5737 5737 5736 5735 5734 5732 5731 5729 5726
5749 5749 5749 5750 5752 5750 5749 5749 5750 5750 5750 5749 5749 5748 5748 5748 5747 5746 5746 5745 5744 5744 5744 5743 5743 5742 5742 5742 5741 5740 5740 5739 5738 5737 5736 5735 5735 5734 5733 5732 5730 5729 5727 5725
5747 5746 5746 5747 5748 5747 5747 5747 5748 5748 5748 5747 5747 5747 5747 5746 5746 5745 5745 5744 5744 5743 5743 5742 5742 5742 5741 5741 5740 5739 5738 5738 5737 5736 5735 5734 5734 5733 5732 5730 5729 5727 5725 5723
5744 5743 5743 5744 5745 5745 5745 5745 5745 5746 5745 5745 5746 5745 5745 5745 5745 5744 5744 5744 5743 5743 5742 5742 5742 5741 5741 5740 5739 5739 5738 5737 5736 5735 5735 5734 5733 5732 5731 5729 5727 5726 5724 5721
5741 5741 5740 5741 5742 5742 5743 5743 5743 5744 5744 5744 5744 5744 5744 5744 5744 5744 5744 5743 5743 5743 5742 5742 5741 5741 5740 5739 5739 5738 5737 5737 5736 5735 5735 5734 5733 5731 5730 5728 5727 5724 5722 5720